This is the latest recevied weather packets stored in our database for station/object DK4ARL. If no packets are shown the sender has not sent any weather packets the latest 10 day(s).
| Time | Temp. | Humidity | Pressure | Rain* | Wind** | Luminosity | Snow |
|---|---|---|---|---|---|---|---|
| 1777153271 | 7.78° C | - | 982 hPa | 0 mm | - | - | - |
| 1777152394 | 8.33° C | - | 981.9 hPa | 0 mm | - | - | - |
| 1777151517 | 8.89° C | - | 981.8 hPa | 0 mm | - | - | - |
| 1777150638 | 9.44° C | - | 981.7 hPa | 0 mm | - | - | - |
| 1777149759 | 10° C | - | 981.6 hPa | 0 mm | - | - | - |
| 1777148879 | 10.56° C | - | 981.4 hPa | 0 mm | - | - | - |
| 1777147997 | 11.11° C | - | 981.3 hPa | 0 mm | - | - | - |
| 1777147115 | 11.67° C | - | 981.1 hPa | 0 mm | - | - | - |
| 1777146231 | 12.22° C | - | 980.9 hPa | 0 mm | - | - | - |
| 1777145346 | 12.78° C | - | 980.7 hPa | 0 mm | - | - | - |
| 1777144459 | 13.33° C | - | 980.5 hPa | 0 mm | - | - | - |
| 1777143571 | 13.89° C | - | 980.3 hPa | 0 mm | - | - | - |
| 1777142682 | 15° C | - | 980.1 hPa | 0 mm | - | - | - |
| 1777141792 | 15.56° C | - | 980 hPa | 0 mm | - | - | - |
| 1777140900 | 16.67° C | - | 979.9 hPa | 0 mm | - | - | - |
| 1777140007 | 17.78° C | - | 979.8 hPa | 0 mm | - | - | - |
| 1777139113 | 18.89° C | - | 979.7 hPa | 0 mm | - | - | - |
| 1777138217 | 19.44° C | - | 979.7 hPa | 0 mm | - | - | - |
| 1777136423 | 20.56° C | - | 979.6 hPa | 0 mm | - | - | - |
| 1777135524 | 21.11° C | - | 979.6 hPa | 0 mm | - | - | - |
| 1777134623 | 21.11° C | - | 979.6 hPa | 0 mm | - | - | - |
| 1777132828 | 22.22° C | - | 979.6 hPa | 0 mm | - | - | - |
| 1777131923 | 22.22° C | - | 979.7 hPa | 0 mm | - | - | - |
| 1777131014 | 21.67° C | - | 979.7 hPa | 0 mm | - | - | - |
| 1777129189 | 22.22° C | - | 979.8 hPa | 0 mm | - | - | - |
* Rain latest hour (hover to see other rain measurements)
** Current wind speed in m/s (hover to see current wind gust speed)